Regional Weather Roundup
Issued by NWS

Home | Current Version | Previous Version | Text Only | Print | Product List | Glossary On
Versions: 1 2 3 4 5 6 7 8 9 10 11 12 13 14 15 16 17 18 19 20 21 22 23 24 25 26 27 28 29 30 31 32 33 34 35 36 37 38 39 40 41 42 43 44 45 46 47 48 49 50
918
ASUS43 KFSD 161510
RWRSD

WEATHER ROUNDUP FOR SOUTH DAKOTA
NATIONAL WEATHER SERVICE SIOUX FALLS SD
900 AM CST MON JAN 16 2017

NOTE: "FAIR" INDICATES FEW OR NO CLOUDS BELOW 12,000 FEET WITH NO
SIGNIFICANT WEATHER AND/OR OBSTRUCTIONS TO VISIBILITY.


SDZ001>005-009-010-012>017-161600-
NORTHWEST AND NORTH CENTRAL SOUTH DAKOTA

CITY           SKY/WX    TMP DP  RH WIND       PRES   REMARKS
BUFFALO          N/A     13   4  67 W10       30.02R WCI   0
FAITH            N/A     12   5  73 NW12      30.07R WCI  -2
MOBRIDGE       CLOUDY     2  -5  72 N7        30.05S WCI -11
$$

SDZ012>016-024>037-041>051-057-063-072>074-161600-
SOUTHWEST AND SOUTH CENTRAL SOUTH DAKOTA

CITY           SKY/WX    TMP DP  RH WIND       PRES   REMARKS
RAPID CTY ARPT CLOUDY    27   9  46 N18       30.08R WCI  14
PIERRE         CLOUDY     8   4  83 SW5       30.09S WCI   0
CUSTER         CLOUDY    26   3  37 NW5       30.03R WCI  20
ELLSWORTH AFB  CLOUDY    31   9  39 NW20      30.07R WCI  18
PHILIP         CLOUDY     9   4  80 W7        30.10R WCI  -2
PINE RIDGE     CLOUDY    18  17  96 W3        30.09R
SPEARFISH      FAIR      23   7  50 W9        30.10S WCI  13
WINNER         FAIR      20  16  84 NW3       30.08S
$$

SDZ004>011-016>023-039-040-161600-
NORTHEAST SOUTH DAKOTA

CITY           SKY/WX    TMP DP  RH WIND       PRES   REMARKS
ABERDEEN       CLOUDY    -1  -6  79 SW6       30.10S WCI -13
WATERTOWN      CLOUDY     6   3  87 CALM      30.07S FOG
BROOKINGS      CLOUDY    12   9  87 CALM      30.06F
SISSETON         N/A     13  10  88 SW7       30.07S WCI   3
$$

SDZ017-020-022-023-036>040-048>070-161600-
SOUTHEAST SOUTH DAKOTA

CITY           SKY/WX    TMP DP  RH WIND       PRES   REMARKS
SIOUX FALLS    CLOUDY    24  20  84 NE3       30.07R
HURON          CLOUDY    11   7  84 CALM      30.10F
CHAMBERLAIN    CLOUDY    15  12  88 CALM      30.08F
MITCHELL       CLOUDY    18  16  92 NW7       30.10S FOG     WCI   9
YANKTON        CLOUDY    30  28  93 N5        30.04S WCI  25
$$

ABBREVIATIONS USED IN REMARKS
   TC - TEMPERATURE IN CELSIUS
  WCI - WIND CHILL INDEX
   HX - HEAT INDEX
  VSB - VISIBILITY





USA.gov is the U.S. government's official web portal to all federal, state and local government web resources and services.